TimeCST,TemperatureF,Dew PointF,Humidity,Sea Level PressureIn,VisibilityMPH,Wind Direction,Wind SpeedMPH,Gust SpeedMPH,PrecipitationIn,Events,Conditions,WindDirDegrees,DateUTC
12:15 AM,28.4,26.6,93,29.77,0.2,Calm,Calm,-,N/A,Fog,Light Freezing Fog,0,2013-01-28 06:15:00
12:53 AM,27.0,26.1,96,29.82,0.2,Calm,Calm,-,N/A,Fog,Light Freezing Fog,0,2013-01-28 06:53:00
1:53 AM,27.0,27.0,100,29.82,0.5,Calm,Calm,-,N/A,Fog,Light Freezing Fog,0,2013-01-28 07:53:00
2:30 AM,26.6,26.6,100,29.76,0.2,Calm,Calm,-,N/A,Fog,Light Freezing Fog,0,2013-01-28 08:30:00
2:37 AM,26.6,26.6,100,29.76,0.2,Calm,Calm,-,N/A,Fog,Light Freezing Fog,0,2013-01-28 08:37:00
2:53 AM,26.1,25.0,96,29.81,0.2,Calm,Calm,-,N/A,Fog,Light Freezing Fog,0,2013-01-28 08:53:00
3:53 AM,26.1,26.1,100,29.81,0.2,Calm,Calm,-,N/A,Fog,Light Freezing Fog,0,2013-01-28 09:53:00
4:53 AM,25.0,24.1,96,29.80,0.2,Calm,Calm,-,N/A,Fog,Light Freezing Fog,0,2013-01-28 10:53:00
5:53 AM,25.0,23.0,92,29.79,0.2,Calm,Calm,-,N/A,Fog,Light Freezing Fog,0,2013-01-28 11:53:00
6:53 AM,27.0,24.1,89,29.80,0.2,NNW,4.6,-,N/A,Fog,Light Freezing Fog,330,2013-01-28 12:53:00
7:26 AM,26.6,24.8,93,29.73,1.2,North,3.5,-,N/A,,Scattered Clouds,360,2013-01-28 13:26:00
7:37 AM,26.6,24.8,93,29.74,0.5,North,3.5,-,N/A,Fog,Light Freezing Fog,350,2013-01-28 13:37:00
7:53 AM,27.0,25.0,92,29.81,0.5,Calm,Calm,-,N/A,Fog,Light Freezing Fog,0,2013-01-28 13:53:00
8:53 AM,28.9,27.0,92,29.81,0.2,Calm,Calm,-,N/A,Fog,Light Freezing Fog,0,2013-01-28 14:53:00
9:53 AM,32.0,32.0,100,29.79,0.2,NNW,3.5,-,N/A,Fog,Fog,340,2013-01-28 15:53:00
10:53 AM,39.0,39.0,100,29.77,0.2,NNE,3.5,-,N/A,Fog,Fog,30,2013-01-28 16:53:00
11:11 AM,39.2,39.2,100,29.72,1.2,Calm,Calm,-,N/A,,Overcast,0,2013-01-28 17:11:00
11:15 AM,39.2,39.2,100,29.72,0.8,Calm,Calm,-,N/A,,Overcast,0,2013-01-28 17:15:00
11:26 AM,39.2,39.2,100,29.72,1.2,SE,3.5,-,N/A,,Overcast,130,2013-01-28 17:26:00
11:53 AM,39.9,39.9,100,29.75,1.0,ESE,4.6,-,N/A,,Overcast,110,2013-01-28 17:53:00
12:05 PM,39.2,39.2,100,29.70,1.2,East,3.5,-,N/A,,Overcast,100,2013-01-28 18:05:00
12:39 PM,39.2,39.2,100,29.67,3.0,East,4.6,-,N/A,,Overcast,100,2013-01-28 18:39:00
12:53 PM,41.0,39.9,96,29.71,4.0,SE,5.8,-,N/A,,Overcast,130,2013-01-28 18:53:00
1:34 PM,41.0,39.2,93,29.63,6.0,East,3.5,-,N/A,,Overcast,80,2013-01-28 19:34:00
1:53 PM,41.0,39.9,96,29.67,2.5,NE,6.9,-,N/A,,Overcast,50,2013-01-28 19:53:00
2:00 PM,41.0,39.2,93,29.61,2.5,ENE,5.8,-,N/A,,Overcast,60,2013-01-28 20:00:00
2:11 PM,41.0,39.2,93,29.61,4.0,NE,5.8,-,N/A,,Overcast,50,2013-01-28 20:11:00
2:20 PM,39.2,39.2,100,29.61,1.8,NNE,6.9,-,N/A,,Overcast,20,2013-01-28 20:20:00
2:23 PM,39.2,39.2,100,29.61,0.8,NNE,8.1,-,N/A,,Overcast,20,2013-01-28 20:23:00
2:53 PM,37.9,37.9,100,29.67,0.2,NNE,9.2,-,N/A,Fog,Fog,20,2013-01-28 20:53:00
3:50 PM,37.4,37.4,100,29.61,1.0,North,10.4,-,N/A,,Overcast,10,2013-01-28 21:50:00
3:53 PM,37.9,37.9,100,29.67,1.0,NNE,6.9,-,N/A,,Overcast,20,2013-01-28 21:53:00
4:08 PM,37.4,37.4,100,29.61,1.2,NNE,9.2,-,N/A,,Overcast,20,2013-01-28 22:08:00
4:28 PM,37.4,37.4,100,29.61,1.0,NNE,9.2,-,N/A,,Overcast,20,2013-01-28 22:28:00
4:53 PM,37.9,37.0,97,29.67,1.0,NNE,8.1,-,N/A,,Overcast,20,2013-01-28 22:53:00
5:05 PM,37.4,37.4,100,29.62,0.8,North,8.1,-,N/A,,Overcast,10,2013-01-28 23:05:00
5:49 PM,35.6,35.6,100,29.63,1.2,North,11.5,-,0.01,Rain,Light Rain,350,2013-01-28 23:49:00
5:53 PM,36.0,35.1,97,29.70,1.5,North,11.5,-,0.01,Rain,Light Rain,350,2013-01-28 23:53:00
6:33 PM,35.6,33.8,93,29.62,2.0,North,17.3,25.3,0.00,Rain,Light Rain,10,2013-01-29 00:33:00
6:53 PM,34.0,33.1,96,29.69,2.5,North,18.4,-,0.00,,Overcast,360,2013-01-29 00:53:00
7:02 PM,33.8,33.8,100,29.63,3.0,North,18.4,-,N/A,,Overcast,10,2013-01-29 01:02:00
7:40 PM,33.8,32.0,93,29.62,4.0,North,20.7,-,N/A,,Overcast,360,2013-01-29 01:40:00
7:53 PM,33.1,32.0,96,29.68,5.0,North,18.4,-,N/A,,Overcast,360,2013-01-29 01:53:00
8:25 PM,32.0,30.2,93,29.62,6.0,North,12.7,20.7,N/A,,Overcast,10,2013-01-29 02:25:00
8:53 PM,30.9,30.0,96,29.71,4.0,North,17.3,23.0,N/A,,Overcast,350,2013-01-29 02:53:00
9:53 PM,30.9,28.9,92,29.71,9.0,North,13.8,26.5,0.00,,Overcast,350,2013-01-29 03:53:00
10:53 PM,30.9,28.9,92,29.72,10.0,NNW,17.3,-,N/A,,Overcast,330,2013-01-29 04:53:00
11:17 PM,30.2,28.4,93,29.66,10.0,NNW,19.6,-,N/A,,Overcast,340,2013-01-29 05:17:00
11:36 PM,30.2,28.4,93,29.68,10.0,NNW,15.0,-,N/A,,Overcast,340,2013-01-29 05:36:00
11:53 PM,30.9,28.0,89,29.71,10.0,NNW,15.0,24.2,N/A,,Overcast,340,2013-01-29 05:53:00